Volver al catálogo

STARLINK-36268

ActivoComunicacionesVLEO
NORAD 67199·PAYLOAD·🇺🇸 United States

Lanzado Dec 17, 2025 desde Vandenberg Space Force Base

Loading…

Próximos Pases (próximas 24 horas)

TLE

ActualizadoSource: CelesTrak SupGP

Época: Sep 15, 2026, 03:08 UTC

1 67199C 25304H   26258.13104167 -.00039548  00000+0 -33145-2 0  2588
2 67199  70.0008  56.9076 0002452 263.8279 272.9210 14.98348635    17

Sigue STARLINK-36268 en tiempo real con AllMySat

Download on the App Store